www.srh.weather.gov   
NOAA logo - Click to go to the NOAA homepage   NWS logo
Other Public Products
Enter Your "City, ST" or zip code   
Current Version              Previous Version:    01  02  03  04  05  06  07  08  09  10  11  12  13  14  15  16  17  18  19  20  21  22  23  24  25  26  27  28  29  30  
   31  32  33  34  35  36  37  38  39  40  41  42  43  44  45  46  47  48  49  50  51  52  53  54  55  56  57  58  59  60  
[Printable]
303
FPUS83 KFGF 310510
OPUFGF
PRAIRIE TO PINES WEATHER ROUNDUP
NATIONAL WEATHER SERVICE EASTERN NORTH DAKOTA/GRAND FORKS ND
1200 AM CDT THU JUL 31 2014

 **SATELLITE DATA USED TO AUGMENT SKY COVER AT AUTOMATED STATIONS**
 *****  WEATHER ACROSS EASTERN NORTH DAKOTA  *****

CITY           SKY/WX    TMP DP  RH WIND       PRES   REMARKS
GRAND FORKS    CLEAR     61  57  87 W6        30.04S
GRAND FORKS AF CLEAR     60  59  99 W2        30.05S
GRAND CITY NWS   N/A     63 N/A N/A NW2         N/A
BUXTON         NOT AVBL
DEVILS LAKE    CLEAR     66  55  68 CALM      30.07S
FARGO          CLEAR     64  56  75 CALM      30.04F
WAHPETON ARPT  PTCLDY    61  52  72 CALM      30.06S
$$

 *****  WEATHER ACROSS CENTRAL AND WESTERN NORTH DAKOTA  *****

CITY           SKY/WX    TMP DP  RH WIND       PRES   REMARKS
JAMESTOWN      CLEAR     63  55  75 W3        30.09S
BISMARCK       MOCLDY    64  58  80 CALM      30.11S
MINOT          CLEAR     65  55  70 SW3       30.09F
MINOT AFB      CLEAR     59  58  94 W3        30.09F
GARRISON         N/A     62  59  90 N5        30.11F
WILLISTON      CLEAR     68  53  58 CALM      30.11F
DICKINSON      CLEAR     63  52  67 E5        30.14S
HETTINGER      CLEAR     57  53  86 W3        30.16S
$$

 *****  OTHER OBSERVATIONS NORTHEAST NORTH DAKOTA  *****

CITY           SKY/WX    TMP DP  RH WIND       PRES   REMARKS
WALHALLA       NOT AVBL
LANGDON        FAIR      59  57  94 CALM      30.08F
CAVALIER       FAIR      64  59  82 W6        30.04S
GRAFTON        FAIR      64  61  88 W6        30.04S
CANDO          FAIR      59  57  94 CALM      30.09S
FORT TOTTEN      N/A     61  59  92 CALM      29.95
ROLLA          FAIR      59  57  94 CALM      30.11S
RUGBY          FAIR      61  57  88 CALM      30.09S
 ***** THE ABOVE OBSERVATIONS ARE NON NWS ARE NOT QUALITY
        CONTROLLED AND MAY MIS-REPORT RAIN FOR SNOW...
$$

 *****  OTHER OBSERVATIONS SOUTHEAST NORTH DAKOTA *****

CITY           SKY/WX    TMP DP  RH WIND       PRES   REMARKS
COOPERSTOWN    NOT AVBL
VALLEY CITY    FAIR      64  57  77 W3        30.08F
OAKES          NOT AVBL
GWINNER        CLEAR     63  57  82 W5        30.09F
BUFFALO        NOT AVBL
WYNDMERE       NOT AVBL
 ***** THE ABOVE OBSERVATIONS ARE NON NWS ARE NOT QUALITY
       CONTROLLED AND MAY MIS-REPORT RAIN FOR SNOW...
$$

  *****  WEATHER ACROSS NORTHERN MINNESOTA  *****

CITY           SKY/WX    TMP DP  RH WIND       PRES   REMARKS
FLAG ISLAND    CLEAR     70  61  73 NW6       29.99S
WARROAD        CLEAR     64  61  88 W5        30.02S
ROSEAU           N/A     66  59  77 W6        30.03R
HALLOCK        CLEAR     64  57  77 CALM      30.02F
THF RVR FALLS  CLEAR     64  57  77 CALM      30.05S
HALSTAD          N/A     62  59  90 SW3         N/A
FOSSTON        CLEAR     55  52  88 CALM      30.06F
BAUDETTE       MOCLDY    66  58  75 VRB3      30.01S
WASKISH        CLEAR     70  61  73 CALM      30.01F
CROOKSTON      CLEAR     63  59  88 CALM      30.05S
$$
  *****  WEATHER ACROSS CENTRAL AND WEST MINNESOTA  *****

CITY           SKY/WX    TMP DP  RH WIND       PRES   REMARKS
BEMIDJI        CLEAR     58  53  83 W5        30.05S
PARK RAPIDS    CLEAR     58  55  90 CALM      30.06S
WADENA         CLEAR     55  54  94 CALM      30.06S
DETROIT LAKES  CLEAR     61  59  94 CALM      30.07F
MOORHEAD       CLEAR     64  61  88 CALM      30.06S
FERGUS FALLS   CLEAR     64  55  72 CALM      30.06S
ELBOW LAKE     FAIR      62  59  90 CALM      30.06F
MORRIS MN      CLEAR     59  55  88 W3        30.07S
STAPLES        CLEAR     57  54  88 W3        30.06S
WHEATON        CLEAR     61  57  88 SW6       30.09S
$$
  *****  WEATHER ELSEWHERE ACROSS MINNESOTA  *****

CITY           SKY/WX    TMP DP  RH WIND       PRES   REMARKS
DULUTH         PTCLDY    64  56  75 NW6       30.00S
INTRNTL FALLS  MOCLDY    57  56  96 CALM      29.99S
ELY            CLEAR     55  54  94 CALM      30.00S
CLOQUET        CLEAR     63  55  77 W7        30.01S
BRAINERD       CLEAR     59  56  89 CALM      30.05S
HIBBING        CLEAR     66  55  67 W6        30.01S
ALEXANDRIA     CLEAR     62  56  80 SW5       30.09S
SAINT CLOUD    CLEAR     64  55  72 NW5       30.04F
MINNEAPOLIS    CLEAR     70  58  65 W6        30.04S
$$

  *****  WEATHER ACROSS SOUTH DAKOTA  *****

CITY           SKY/WX    TMP DP  RH WIND       PRES   REMARKS
SIOUX FALLS    CLEAR     61  56  83 NW3       30.11S
BROOKINGS      NOT AVBL
WATERTOWN      CLEAR     61  54  77 CALM      30.11S
HURON          PTCLDY    66  56  70 SE5       30.08S
SISSETON         N/A     56  55  97 CALM      30.07S
ABERDEEN       MOCLDY    58  55  90 CALM      30.09F
MITCHELL       PTCLDY    69  56  62 S6        30.10S
PIERRE         CLEAR     67  56  67 E8        30.07S
MOBRIDGE       CLEAR     64  57  78 S6        30.08F
RAPID CITY     PTCLDY    64  50  60 N10       30.18R
$$

  *****  SOME WEATHER IN NEARBY STATES *****

CITY           SKY/WX    TMP DP  RH WIND       PRES   REMARKS
GLASGOW MT     PTCLDY    72  50  45 SE12      30.05S
GREAT FALLS MT MOCLDY    72  43  35 W10       30.12R
CHEYENNE WY    CLOUDY    57  54  89 SW6       30.36S
SCOTTSBLUFF NE MOCLDY    65  58  78 CALM      30.23S
OMAHA NE       PTCLDY    64  58  80 CALM      30.11S
DES MOINES IA  CLEAR     69  56  62 CALM      30.09S
DAVENPORT IA   CLEAR     59  56  89 NW5       30.07S
CHICAGO IL     CLEAR     63  55  75 S6        30.03F
EAU CLAIRE WI  CLEAR     62  60  93 SW5       30.01S
LA CROSSE WI   CLEAR     67  62  84 SE3       30.02S
$$

  *****  SOME NATIONAL WEATHER *****

CITY           SKY/WX    TMP DP  RH WIND       PRES   REMARKS
LA GUARDIA NY  PTCLDY    72  59  63 S5        30.04S
RALEIGH NC     MOCLDY    71  65  81 CALM      30.09R
ATLANTA GA     MOCLDY    74  58  57 N5        30.06R
NEW ORLEANS LA PTCLDY    79  60  52 E5        30.02S
OKLAHOMA CITY  CLOUDY    70  66  87 NE9       30.04R
ALBUQUERQUE NM MOCLDY    69  60  73 E23G35    30.22R THUNDER
SALT LAKE CITY PTCLDY    72  53  51 SE6       30.17S
LOS ANGELES CA CLEAR     69  64  84 S5        29.93R
BOISE ID       PTCLDY    82  44  26 E5        30.08R
SEATTLE WA     PTCLDY    74  49  41 NE9       30.11R
$$

*** WEATHER ACROSS MANITOBA...SASKATCHEWAN AND ONTARIO ***
                ***ONTARIO***

CITY           SKY/WX    TMP DP  RH WIND       PRES   REMARKS
GERALDTON      NOT AVBL
THUNDER BAY    NOT AVBL
SIOUX LOOKOUT  NOT AVBL
TORONTO        NOT AVBL
BIG TROUT LK   NOT AVBL
PICKLE LAKE    NOT AVBL
DRYDEN         NOT AVBL
KENORA         NOT AVBL
$$
                *** MANITOBA***

CITY           SKY/WX    TMP DP  RH WIND       PRES   REMARKS
BRANDON        NOT AVBL
DAUPHIN        NOT AVBL
ISLAND LAKE    NOT AVBL
PILOT MOUND    NOT AVBL
THE PAS        NOT AVBL
THOMPSON       NOT AVBL
WINNIPEG       NOT AVBL
$$
                ***SASKATCHEWAN***

CITY           SKY/WX    TMP DP  RH WIND       PRES   REMARKS
ESTEVAN        NOT AVBL
KINDERSLEY     NOT AVBL
LLOYDMINSTER   NOT AVBL
PRINCE ALBERT  NOT AVBL
REGINA         NOT AVBL
YORKTON        NOT AVBL
N. BATTLEFORD  NOT AVBL
LA RONGE       NOT AVBL
SASKATOON      NOT AVBL



National Weather Service
Disclaimer
Last Modified: August 31, 2005
Privacy Policy